This is the latest recevied weather packets stored in our database for station/object WD7OO. If no packets are shown the sender has not sent any weather packets the latest 10 day(s).
| Time | Temp. | Humidity | Pressure | Rain* | Wind** | Luminosity | Snow |
|---|---|---|---|---|---|---|---|
| 1777489686 | 12.78° C | 83% | 1012.3 hPa | 0 mm | - | 794 W/m² | - |
| 1777488474 | 12.78° C | 85% | 1012.2 hPa | 0 mm | - | 839 W/m² | - |
| 1777487869 | 12.22° C | 88% | 1012.1 hPa | 0 mm | - | 382 W/m² | - |
| 1777487567 | 12.22° C | 88% | 1012 hPa | 0 mm | - | 555 W/m² | - |
| 1777487264 | 11.67° C | 87% | 1011.9 hPa | 1.27 mm | - | 423 W/m² | - |
| 1777486657 | 12.22° C | 89% | 1011.9 hPa | 0 mm | - | 353 W/m² | - |
| 1777486355 | 12.22° C | 90% | 1011.9 hPa | 0 mm | - | 327 W/m² | - |
| 1777486052 | 12.22° C | 89% | 1011.7 hPa | 0 mm | - | 276 W/m² | - |
| 1777485748 | 12.22° C | 89% | 1011.9 hPa | 0 mm | - | 299 W/m² | - |
| 1777485444 | 12.22° C | 91% | 1011.9 hPa | 0 mm | - | 404 W/m² | - |
| 1777484837 | 12.22° C | 95% | 1011.7 hPa | 0 mm | - | 318 W/m² | - |
| 1777484231 | 11.67° C | 97% | 1011.8 hPa | 0 mm | - | 293 W/m² | - |
| 1777483318 | 11.11° C | 97% | 1011.9 hPa | 0 mm | - | 97 W/m² | - |
| 1777482407 | 11.67° C | 95% | 1011.9 hPa | 1.78 mm | - | 42 W/m² | - |
| 1777482105 | 11.67° C | 94% | 1012.1 hPa | 0 mm | - | 17 W/m² | - |
| 1777481196 | 11.67° C | 94% | 1011.8 hPa | 0 mm | - | 97 W/m² | - |
| 1777480589 | 11.67° C | 94% | 1011.8 hPa | 0 mm | - | 125 W/m² | - |
| 1777479982 | 11.11° C | 96% | 1012.1 hPa | 0 mm | - | 142 W/m² | - |
| 1777476647 | 11.67° C | 96% | 1012 hPa | 0 mm | - | 73 W/m² | - |
| 1777476039 | 11.67° C | 96% | 1012 hPa | 0 mm | - | 84 W/m² | - |
| 1777474519 | 11.67° C | 95% | 1012 hPa | 0 mm | - | 92 W/m² | - |
| 1777473003 | 11.11° C | 97% | 1012 hPa | 0 mm | - | 54 W/m² | - |
| 1777471182 | 11.11° C | 99% | 1012.1 hPa | 1.27 mm | - | 105 W/m² | - |
| 1777469968 | 10.56° C | 99% | 1012.4 hPa | 0 mm | - | 104 W/m² | - |
| 1777469664 | 10.56° C | 99% | 1012.6 hPa | 0 mm | - | 54 W/m² | - |
* Rain latest hour (hover to see other rain measurements)
** Current wind speed in m/s (hover to see current wind gust speed)